BAW22PA EGLL-KJFK

Flight info

Callsign BAW22PA
Flight time N/A
Altitude 38000
Route ULTIB T420 TNT UL28 PENIL M144 BAGSO DCT RINUS DCT MALOT/M085F380 NATE RIKAL/N0484F380 N572A TOPPS DCT ENE PARCH4
Aircraft A35K/H-SDE2E3GHIJ3J4J5LM1ORWXY/LB1D1

Departure

Time 2026-05-05 10:16
Airport London Heathrow Airport (EGLL)

Arrival

Time N/A
Airport John F. Kennedy International Airport (KJFK)
Time Latitude Longitude Altitude Speed Heading
2026-05-05 09:36 51.47115 -0.48261 93 ft 0 kts 89°
2026-05-05 10:05 51.47115 -0.48280 93 ft 2 kts 91°
2026-05-05 10:05 51.47116 -0.48306 93 ft 2 kts 95°
2026-05-05 10:06 51.47118 -0.48332 96 ft 2 kts 108°
2026-05-05 10:06 51.47127 -0.48354 95 ft 2 kts 159°
2026-05-05 10:06 51.47139 -0.48358 95 ft 1 kts 178°
2026-05-05 10:06 51.47140 -0.48358 95 ft 0 kts 178°
2026-05-05 10:08 51.47137 -0.48358 94 ft 1 kts 178°
2026-05-05 10:08 51.47111 -0.48358 95 ft 9 kts 179°
2026-05-05 10:08 51.47029 -0.48356 96 ft 14 kts 177°
2026-05-05 10:09 51.46919 -0.48349 96 ft 18 kts 180°
2026-05-05 10:09 51.46847 -0.48350 96 ft 0 kts 181°
2026-05-05 10:12 51.46844 -0.48350 96 ft 4 kts 181°
2026-05-05 10:12 51.46782 -0.48361 94 ft 8 kts 199°
2026-05-05 10:12 51.46751 -0.48415 97 ft 6 kts 250°
2026-05-05 10:13 51.46740 -0.48509 93 ft 11 kts 265°
2026-05-05 10:13 51.46734 -0.48651 94 ft 14 kts 264°
2026-05-05 10:13 51.46693 -0.48732 96 ft 7 kts 205°
2026-05-05 10:13 51.46636 -0.48751 93 ft 11 kts 193°
2026-05-05 10:14 51.46545 -0.48781 94 ft 14 kts 178°
2026-05-05 10:14 51.46487 -0.48726 96 ft 6 kts 124°
2026-05-05 10:14 51.46485 -0.48700 95 ft 0 kts 96°
2026-05-05 10:15 51.46484 -0.48696 96 ft 2 kts 96°
2026-05-05 10:15 51.46481 -0.48347 93 ft 70 kts 88°
2026-05-05 10:15 51.46488 -0.47154 90 ft 140 kts 94°
2026-05-05 10:15 51.46488 -0.45339 321 ft 180 kts 88°
2026-05-05 10:16 51.46480 -0.43265 1108 ft 192 kts 86°
2026-05-05 10:16 51.46576 -0.41048 1890 ft 205 kts 76°
2026-05-05 10:16 51.47249 -0.39059 2584 ft 214 kts 43°
2026-05-05 10:16 51.48456 -0.37495 3095 ft 233 kts 38°
2026-05-05 10:17 51.49736 -0.35757 3601 ft 244 kts 43°
2026-05-05 10:17 51.50958 -0.33813 4114 ft 248 kts 47°
2026-05-05 10:17 51.51887 -0.31506 4645 ft 251 kts 66°
2026-05-05 10:17 51.52520 -0.28876 5152 ft 253 kts 70°
2026-05-05 10:18 51.53136 -0.26230 5655 ft 257 kts 65°
2026-05-05 10:18 51.54177 -0.23887 6169 ft 261 kts 42°
2026-05-05 10:18 51.55777 -0.22502 6655 ft 266 kts 15°
2026-05-05 10:18 51.57626 -0.22392 7205 ft 269 kts 352°
2026-05-05 10:19 51.59485 -0.22949 7824 ft 273 kts 349°
2026-05-05 10:19 51.61344 -0.23668 8463 ft 275 kts 342°
2026-05-05 10:19 51.63065 -0.24960 9099 ft 278 kts 330°
2026-05-05 10:19 51.64738 -0.26572 9767 ft 281 kts 329°
2026-05-05 10:20 51.66420 -0.28228 10387 ft 289 kts 329°
2026-05-05 10:20 51.68192 -0.29952 11025 ft 306 kts 329°
2026-05-05 10:20 51.70063 -0.31769 11661 ft 322 kts 329°
2026-05-05 10:20 51.72030 -0.33676 12306 ft 337 kts 329°
2026-05-05 10:21 51.74047 -0.35629 12956 ft 345 kts 329°
2026-05-05 10:21 51.76116 -0.37630 13625 ft 349 kts 329°
2026-05-05 10:21 51.78223 -0.39668 14243 ft 353 kts 329°
2026-05-05 10:21 51.80320 -0.41698 14846 ft 356 kts 329°
2026-05-05 10:22 51.82467 -0.43772 15459 ft 361 kts 329°
2026-05-05 10:22 51.84647 -0.45884 16102 ft 365 kts 328°
2026-05-05 10:22 51.86811 -0.47987 16726 ft 369 kts 328°
2026-05-05 10:22 51.89032 -0.50149 17397 ft 374 kts 328°
2026-05-05 10:23 51.91275 -0.52336 18071 ft 379 kts 328°
2026-05-05 10:23 51.93546 -0.54553 18685 ft 383 kts 327°
2026-05-05 10:23 51.95854 -0.56805 19288 ft 387 kts 328°
2026-05-05 10:23 51.98152 -0.59048 19897 ft 390 kts 327°
2026-05-05 10:24 52.00490 -0.61337 20529 ft 393 kts 327°
2026-05-05 10:24 52.02852 -0.63652 21175 ft 397 kts 327°
2026-05-05 10:24 52.05234 -0.65989 21827 ft 400 kts 327°
2026-05-05 10:24 52.07603 -0.68316 22497 ft 404 kts 327°
2026-05-05 10:25 52.10033 -0.70706 23186 ft 409 kts 327°
2026-05-05 10:25 52.12486 -0.73120 23833 ft 413 kts 327°
2026-05-05 10:25 52.14959 -0.75558 24429 ft 417 kts 327°
2026-05-05 10:25 52.17428 -0.77995 25031 ft 420 kts 326°
2026-05-05 10:26 52.19951 -0.80489 25652 ft 424 kts 326°
2026-05-05 10:26 52.22493 -0.83005 26291 ft 427 kts 326°
2026-05-05 10:26 52.25012 -0.85502 26933 ft 430 kts 326°
2026-05-05 10:26 52.27588 -0.88052 27586 ft 433 kts 326°
2026-05-05 10:27 52.30172 -0.90618 28271 ft 435 kts 325°
2026-05-05 10:27 52.32776 -0.93211 28982 ft 436 kts 325°
2026-05-05 10:27 52.35334 -0.95763 29695 ft 436 kts 325°
2026-05-05 10:27 52.37923 -0.98349 30361 ft 436 kts 325°
2026-05-05 10:28 52.40519 -1.00945 30985 ft 435 kts 326°
2026-05-05 10:28 52.43110 -1.03538 31631 ft 433 kts 326°
2026-05-05 10:28 52.45688 -1.06121 32288 ft 431 kts 327°
2026-05-05 10:28 52.48216 -1.08657 32952 ft 428 kts 327°
2026-05-05 10:29 52.50759 -1.11207 33620 ft 424 kts 327°
2026-05-05 10:29 52.53234 -1.13694 34275 ft 420 kts 328°
2026-05-05 10:29 52.55725 -1.16203 34880 ft 414 kts 327°
2026-05-05 10:29 52.58175 -1.18669 35477 ft 407 kts 327°
2026-05-05 10:30 52.60540 -1.21056 36090 ft 400 kts 327°
2026-05-05 10:30 52.62895 -1.23439 36730 ft 392 kts 327°
2026-05-05 10:30 52.65199 -1.25773 37374 ft 382 kts 327°
2026-05-05 10:30 52.67439 -1.28044 37880 ft 376 kts 327°
2026-05-05 10:31 52.69647 -1.30287 38023 ft 380 kts 327°
2026-05-05 10:31 52.71933 -1.32607 38030 ft 386 kts 327°
2026-05-05 10:31 52.76574 -1.37340 38030 ft 401 kts 327°
2026-05-05 10:32 52.81424 -1.42306 38024 ft 416 kts 327°
2026-05-05 10:32 52.86415 -1.47421 38028 ft 432 kts 327°
2026-05-05 10:33 52.91635 -1.52782 38026 ft 448 kts 327°
2026-05-05 10:33 52.97000 -1.58307 38025 ft 464 kts 327°
2026-05-05 10:34 53.02593 -1.64084 38025 ft 478 kts 327°
2026-05-05 10:34 53.08213 -1.69898 38021 ft 477 kts 327°
2026-05-05 10:35 53.13853 -1.75764 38026 ft 476 kts 327°
2026-05-05 10:35 53.19441 -1.81669 38027 ft 476 kts 323°
2026-05-05 10:36 53.24216 -1.89136 38036 ft 472 kts 306°
2026-05-05 10:36 53.27576 -1.98523 38042 ft 470 kts 296°
2026-05-05 10:37 53.30484 -2.08260 38045 ft 470 kts 295°
2026-05-05 10:37 53.33347 -2.18110 38050 ft 470 kts 295°
2026-05-05 10:38 53.36004 -2.28106 38052 ft 468 kts 288°
2026-05-05 10:38 53.38074 -2.38442 38047 ft 468 kts 287°
2026-05-05 10:39 53.40037 -2.48788 38045 ft 468 kts 287°
2026-05-05 10:39 53.41986 -2.59183 38042 ft 467 kts 287°
2026-05-05 10:40 53.43937 -2.69596 38049 ft 466 kts 287°
2026-05-05 10:40 53.45871 -2.79949 38049 ft 465 kts 287°
2026-05-05 10:41 53.47803 -2.90337 38048 ft 465 kts 287°
2026-05-05 10:41 53.49714 -3.00656 38048 ft 464 kts 287°
2026-05-05 10:42 53.52565 -3.16201 38049 ft 464 kts 287°
2026-05-05 10:43 53.54453 -3.26564 38050 ft 464 kts 286°
2026-05-05 10:43 53.56344 -3.36997 38050 ft 464 kts 286°
2026-05-05 10:44 53.58209 -3.47336 38049 ft 464 kts 287°
2026-05-05 10:44 53.60078 -3.57742 38053 ft 464 kts 286°
2026-05-05 10:45 53.61583 -3.68249 38055 ft 463 kts 276°
2026-05-05 10:45 53.62182 -3.79073 38057 ft 463 kts 274°
2026-05-05 10:46 53.62617 -3.89881 38059 ft 463 kts 274°
2026-05-05 10:46 53.63027 -4.00674 38061 ft 463 kts 274°
2026-05-05 10:47 53.63444 -4.11554 38061 ft 463 kts 274°
2026-05-05 10:47 53.63858 -4.22332 38068 ft 463 kts 274°
2026-05-05 10:48 53.64260 -4.33115 38067 ft 463 kts 274°
2026-05-05 10:48 53.64659 -4.43952 38070 ft 462 kts 273°
2026-05-05 10:49 53.65051 -4.54787 38073 ft 462 kts 273°
2026-05-05 10:49 53.65419 -4.65565 38074 ft 461 kts 273°
2026-05-05 10:50 53.65779 -4.76396 38075 ft 461 kts 273°
2026-05-05 10:50 53.66132 -4.87137 38074 ft 461 kts 273°
2026-05-05 10:51 53.66484 -4.97964 38079 ft 462 kts 273°
2026-05-05 10:51 53.66823 -5.08736 38078 ft 462 kts 273°
2026-05-05 10:52 53.67159 -5.19586 38080 ft 462 kts 273°
2026-05-05 10:52 53.67472 -5.30347 38085 ft 462 kts 272°
2026-05-05 10:53 53.67769 -5.41155 38085 ft 462 kts 272°
2026-05-05 10:53 53.68060 -5.52022 38086 ft 462 kts 272°
2026-05-05 10:54 53.68082 -5.61027 38088 ft 462 kts 269°
2026-05-05 10:54 53.67897 -5.71886 38083 ft 462 kts 268°
2026-05-05 10:55 53.67725 -5.82687 38083 ft 462 kts 269°
2026-05-05 10:55 53.67592 -5.93488 38083 ft 462 kts 269°
2026-05-05 10:56 53.67469 -6.04270 38076 ft 461 kts 269°
2026-05-05 10:56 53.67336 -6.15127 38077 ft 461 kts 269°
2026-05-05 10:57 53.67193 -6.25911 38079 ft 461 kts 269°
2026-05-05 10:57 53.67037 -6.36750 38077 ft 461 kts 269°
2026-05-05 10:58 53.66873 -6.47514 38079 ft 461 kts 269°
2026-05-05 10:58 53.66698 -6.58366 38082 ft 469 kts 269°
2026-05-05 10:59 53.66509 -6.69483 38079 ft 479 kts 269°
2026-05-05 10:59 53.66307 -6.80731 38079 ft 479 kts 268°
2026-05-05 11:00 53.66094 -6.91997 38079 ft 479 kts 268°
2026-05-05 11:00 53.65871 -7.03203 38081 ft 479 kts 268°
2026-05-05 11:01 53.65639 -7.14370 38082 ft 479 kts 268°
2026-05-05 11:01 53.65395 -7.25610 38081 ft 479 kts 268°
2026-05-05 11:02 53.65138 -7.36926 38082 ft 485 kts 268°
2026-05-05 11:02 53.64870 -7.48269 38084 ft 487 kts 268°
2026-05-05 11:03 53.64591 -7.59625 38081 ft 487 kts 268°
2026-05-05 11:03 53.64449 -7.65271 38080 ft 476 kts 268°
2026-05-05 11:03 53.64282 -7.70791 38080 ft 466 kts 266°
2026-05-05 11:04 53.63672 -7.81578 38083 ft 462 kts 264°
2026-05-05 11:04 53.62969 -7.92310 38086 ft 462 kts 264°
2026-05-05 11:05 53.62296 -8.03097 38085 ft 462 kts 264°
2026-05-05 11:05 53.61651 -8.13806 38086 ft 462 kts 265°
2026-05-05 11:06 53.60998 -8.24630 38089 ft 462 kts 264°
2026-05-05 11:06 53.60333 -8.35494 38094 ft 476 kts 264°
2026-05-05 11:07 53.59634 -8.46712 38094 ft 487 kts 264°
2026-05-05 11:07 53.58915 -8.58046 38096 ft 489 kts 264°
2026-05-05 11:08 53.58180 -8.69443 38097 ft 488 kts 264°
2026-05-05 11:08 53.57439 -8.80783 38102 ft 488 kts 264°
2026-05-05 11:09 53.56687 -8.92115 38104 ft 488 kts 264°
2026-05-05 11:09 53.55921 -9.03499 38107 ft 488 kts 264°
2026-05-05 11:10 53.55148 -9.14827 38111 ft 488 kts 264°
2026-05-05 11:10 53.54365 -9.26137 38113 ft 488 kts 264°
2026-05-05 11:11 53.53570 -9.37460 38121 ft 488 kts 264°
2026-05-05 11:11 53.52759 -9.48851 38121 ft 489 kts 264°
2026-05-05 11:12 53.51943 -9.60153 38122 ft 489 kts 264°
2026-05-05 11:12 53.51116 -9.71449 38127 ft 489 kts 264°
2026-05-05 11:13 53.50274 -9.82813 38130 ft 489 kts 264°
2026-05-05 11:13 53.49425 -9.94133 38135 ft 489 kts 263°
2026-05-05 11:14 53.48562 -10.05474 38138 ft 489 kts 263°
2026-05-05 11:14 53.47695 -10.16735 38142 ft 489 kts 263°
2026-05-05 11:15 53.46814 -10.28026 38144 ft 489 kts 263°
2026-05-05 11:15 53.45921 -10.39336 38151 ft 489 kts 263°
2026-05-05 11:16 53.45019 -10.50610 38147 ft 488 kts 263°
2026-05-05 11:16 53.44103 -10.61928 38152 ft 488 kts 263°
2026-05-05 11:17 53.43178 -10.73220 38151 ft 487 kts 263°
2026-05-05 11:17 53.42251 -10.84408 38154 ft 487 kts 263°
2026-05-05 11:18 53.41303 -10.95707 38162 ft 487 kts 263°
2026-05-05 11:18 53.40355 -11.06890 38156 ft 487 kts 263°
2026-05-05 11:19 53.39393 -11.18093 38159 ft 487 kts 262°
2026-05-05 11:19 53.38414 -11.29369 38164 ft 487 kts 262°
2026-05-05 11:20 53.37432 -11.40563 38161 ft 487 kts 262°
2026-05-05 11:20 53.36437 -11.51769 38167 ft 488 kts 262°
2026-05-05 11:21 53.35424 -11.63053 38170 ft 488 kts 262°
2026-05-05 11:21 53.34411 -11.74218 38169 ft 488 kts 262°
2026-05-05 11:22 53.33379 -11.85475 38171 ft 488 kts 262°
2026-05-05 11:22 53.32341 -11.96670 38172 ft 488 kts 262°
2026-05-05 11:23 53.31296 -12.07827 38177 ft 488 kts 262°
2026-05-05 11:23 53.30236 -12.19030 38174 ft 480 kts 262°
2026-05-05 11:23 53.29721 -12.24418 38174 ft 467 kts 262°
2026-05-05 11:24 53.29208 -12.29756 38176 ft 461 kts 262°
2026-05-05 11:24 53.28193 -12.40271 38182 ft 459 kts 262°
2026-05-05 11:25 53.27167 -12.50805 38186 ft 459 kts 262°
2026-05-05 11:25 53.26137 -12.61284 38183 ft 459 kts 262°
2026-05-05 11:26 53.25089 -12.71827 38189 ft 458 kts 261°
2026-05-05 11:26 53.24039 -12.82309 38188 ft 458 kts 261°
2026-05-05 11:27 53.22980 -12.92776 38191 ft 458 kts 261°
2026-05-05 11:27 53.21907 -13.03282 38190 ft 458 kts 261°
2026-05-05 11:28 53.20833 -13.13705 38192 ft 458 kts 261°
2026-05-05 11:28 53.19742 -13.24200 38194 ft 458 kts 261°
2026-05-05 11:29 53.18642 -13.34694 38193 ft 458 kts 261°
2026-05-05 11:29 53.17538 -13.45126 38194 ft 458 kts 261°
2026-05-05 11:30 53.16426 -13.55539 38200 ft 457 kts 261°
2026-05-05 11:30 53.15302 -13.65981 38201 ft 457 kts 261°
2026-05-05 11:31 53.14176 -13.76351 38202 ft 457 kts 261°
2026-05-05 11:31 53.13037 -13.86751 38199 ft 457 kts 261°
2026-05-05 11:32 53.11884 -13.97183 38203 ft 457 kts 261°
2026-05-05 11:32 53.10731 -14.07536 38203 ft 457 kts 261°
2026-05-05 11:33 53.09567 -14.17902 38206 ft 456 kts 261°
2026-05-05 11:33 53.08386 -14.28332 38208 ft 456 kts 260°
2026-05-05 11:34 53.07206 -14.38661 38206 ft 456 kts 260°
2026-05-05 11:34 53.06018 -14.48986 38211 ft 456 kts 260°
2026-05-05 11:35 53.04813 -14.59368 38213 ft 456 kts 260°
2026-05-05 11:35 53.03607 -14.69675 38213 ft 456 kts 260°
2026-05-05 11:36 53.02385 -14.80040 38216 ft 456 kts 260°
2026-05-05 11:36 53.01162 -14.90355 38213 ft 455 kts 260°
2026-05-05 11:37 53.00842 -15.00777 38222 ft 453 kts 277°
2026-05-05 11:37 53.02398 -15.10876 38224 ft 452 kts 289°
2026-05-05 11:38 53.04564 -15.20647 38222 ft 453 kts 291°
2026-05-05 11:38 53.06818 -15.30479 38221 ft 453 kts 290°
2026-05-05 11:39 53.09022 -15.40257 38221 ft 453 kts 290°
2026-05-05 11:39 53.11195 -15.50056 38228 ft 453 kts 290°
2026-05-05 11:40 53.13364 -15.59921 38231 ft 452 kts 290°
2026-05-05 11:40 53.15513 -15.69739 38227 ft 452 kts 290°
2026-05-05 11:41 53.17670 -15.79632 38226 ft 452 kts 290°
2026-05-05 11:41 53.19805 -15.89469 38231 ft 452 kts 290°
2026-05-05 11:42 53.21932 -15.99321 38230 ft 452 kts 290°
2026-05-05 11:42 53.24052 -16.09186 38235 ft 452 kts 289°
2026-05-05 11:43 53.26163 -16.19055 38234 ft 451 kts 289°
2026-05-05 11:43 53.28262 -16.28914 38234 ft 451 kts 289°
2026-05-05 11:44 53.30360 -16.38821 38237 ft 451 kts 289°
2026-05-05 11:44 53.32098 -16.47064 38241 ft 451 kts 289°
2026-05-05 11:45 53.34176 -16.56962 38240 ft 451 kts 289°
2026-05-05 11:45 53.36240 -16.66844 38237 ft 451 kts 289°
2026-05-05 11:46 53.38312 -16.76810 38240 ft 451 kts 289°
2026-05-05 11:46 53.40368 -16.86751 38242 ft 451 kts 289°
2026-05-05 11:47 53.42405 -16.96649 38237 ft 451 kts 289°
2026-05-05 11:47 53.44437 -17.06575 38236 ft 451 kts 289°
2026-05-05 11:48 53.47474 -17.21498 38242 ft 451 kts 289°
2026-05-05 11:48 53.49499 -17.31514 38242 ft 451 kts 289°
2026-05-05 11:49 53.51502 -17.41470 38247 ft 451 kts 289°
2026-05-05 11:49 53.53497 -17.51438 38249 ft 450 kts 289°
2026-05-05 11:50 53.55479 -17.61390 38248 ft 450 kts 288°
2026-05-05 11:50 53.57467 -17.71427 38248 ft 450 kts 288°
2026-05-05 11:51 53.59435 -17.81409 38249 ft 451 kts 288°
2026-05-05 11:51 53.61394 -17.91402 38253 ft 451 kts 288°
2026-05-05 11:52 53.63345 -18.01402 38250 ft 451 kts 288°
2026-05-05 11:52 53.65302 -18.11486 38255 ft 451 kts 288°
2026-05-05 11:53 53.67235 -18.21500 38250 ft 451 kts 288°
2026-05-05 11:53 53.69167 -18.31560 38255 ft 451 kts 288°
2026-05-05 11:54 53.71086 -18.41608 38254 ft 451 kts 288°
2026-05-05 11:54 53.72997 -18.51668 38256 ft 451 kts 288°
2026-05-05 11:55 53.74909 -18.61786 38261 ft 451 kts 288°
2026-05-05 11:55 53.76812 -18.71910 38258 ft 451 kts 288°
2026-05-05 11:56 53.78700 -18.82007 38259 ft 451 kts 288°
2026-05-05 11:56 53.80577 -18.92101 38261 ft 451 kts 288°
2026-05-05 11:57 53.82456 -19.02260 38262 ft 451 kts 288°
2026-05-05 11:57 53.84321 -19.12398 38264 ft 452 kts 288°
2026-05-05 11:58 53.86183 -19.22577 38263 ft 452 kts 288°
2026-05-05 11:58 53.88027 -19.32713 38264 ft 451 kts 287°
2026-05-05 11:59 53.89864 -19.42867 38266 ft 451 kts 287°
2026-05-05 11:59 53.91693 -19.53034 38265 ft 452 kts 287°
2026-05-05 12:00 53.93519 -19.63235 38259 ft 447 kts 287°